Content
SEND FEEDBACK

Daily
Averages
Monthly
Summary
United States of America

CRESTED BUTTE, COLORADO


Home > North America > United States > Colorado
Elevation: 9277 feet     Latitude: 38 52N     Longitude: 106 58W

WEATHER
 
SELECT A DAY
Number of Records: 457,110;   Date Range: 1/1/95 - 11/26/14
 
SHARE

PRINT THIS DATA

[ ← Previous Day ]
WEATHER ALMANAC - MARCH 12, 2013
[ Next Day → ]
[ °C ]   °F
Weather ElementAverageHighLow
Temperature32.1 °F46.4 °F (2:35 pm) (8:35 am)
Dewpoint19.5 °F26.6 °F (9:55 am) (7:00 pm)
Humidity59.9 %93 % (8:15 am)39 % (4:55 pm)
Barometer30.28 in30.38 in (11:55 pm)30.20 in (12:35 am)
Wind Speed4.7 mph15 mph (3:35 pm)
Wind Gust18.4 mph (3:35 pm)
Weather ElementAverage
Visibility10 mi
Wind DirectionSE (133.2 °)

Weather ElementTotal
Precipitation---
Heating Degree Days41.8 (Base 65)
Averaged from 66 records on March 12, 2013
WEATHER CONDITIONS BREAKOUT
WIND DIRECTION BREAKOUT
WEATHER BY HOUR - MARCH 12, 2013
[ °C ]   °F
Local TimeTemperatureDewpointHumidityBarometerVisibilityWind DirectionWind SpeedGust SpeedPrecipitationEventsConditions
12:35 AM30.2 °F17.6 °F60 %30.20 in10.0 miNNW (330°)6.9 mphPartly Cloudy
12:55 AM28.4 °F17.6 °F64 %30.20 in10.0 miNNW (330°)3.5 mphMostly Cloudy
1:15 AM30.2 °F19.4 °F64 %30.20 in10.0 miNNE (30°)3.5 mphScattered Clouds
1:35 AM28.4 °F19.4 °F69 %30.20 in10.0 miCalmScattered Clouds
2:15 AM28.4 °F19.4 °F69 %30.20 in10.0 miCalmScattered Clouds
2:35 AM26.6 °F15.8 °F64 %30.20 in10.0 miCalmPartly Cloudy
2:55 AM24.8 °F15.8 °F69 %30.21 in10.0 miCalmPartly Cloudy
3:15 AM26.6 °F17.6 °F69 %30.20 in10.0 miCalmClear
3:35 AM23.0 °F14.0 °F68 %30.20 in10.0 miCalmClear
3:55 AM24.8 °F15.8 °F69 %30.21 in10.0 miCalmClear
4:15 AM23.0 °F15.8 °F74 %30.21 in10.0 miENE (70°)6.9 mphClear
4:35 AM21.2 °F15.8 °F80 %30.21 in10.0 miCalmClear
4:55 AM21.2 °F17.6 °F86 %30.21 in10.0 miCalmMostly Cloudy
5:15 AM19.4 °F12.2 °F74 %30.22 in10.0 miEast (80°)4.6 mphOvercast
5:35 AM19.4 °F15.8 °F86 %30.23 in10.0 miNE (40°)4.6 mphOvercast
5:55 AM21.2 °F17.6 °F86 %30.23 in10.0 miCalmMostly Cloudy
6:15 AM21.2 °F15.8 °F80 %30.24 in10.0 miNE (40°)4.6 mphMostly Cloudy
6:35 AM21.2 °F15.8 °F80 %30.24 in10.0 miCalmMostly Cloudy
6:55 AM19.4 °F10.4 °F68 %30.25 in10.0 miEast (90°)3.5 mphMostly Cloudy
7:15 AM17.6 °F12.2 °F79 %30.25 in10.0 miCalmScattered Clouds
7:55 AM21.2 °F17.6 °F86 %30.25 in10.0 miNorth (350°)6.9 mphClear
8:15 AM21.2 °F19.4 °F93 %30.26 in10.0 miNE (50°)4.6 mphClear
8:35 AM0.0 °F0.0 °F30.25 in10.0 miEast (80°)3.5 mphClear
8:55 AM0.0 °F0.0 °F30.27 in10.0 miSSE (160°)3.5 mphClear
9:15 AM0.0 °F0.0 °F30.28 in10.0 miCalmClear
9:35 AM0.0 °F0.0 °F30.29 in10.0 miCalmClear
9:55 AM33.8 °F26.6 °F75 %30.30 in10.0 miNorth (350°)5.8 mphClear
10:15 AM35.6 °F26.6 °F70 %30.31 in10.0 miEast (100°)3.5 mphScattered Clouds
10:35 AM33.8 °F21.2 °F60 %30.31 in10.0 miCalmOvercast
10:55 AM35.6 °F24.8 °F65 %30.31 in10.0 miCalmMostly Cloudy
11:15 AM39.2 °F26.6 °F61 %30.32 in10.0 miCalmMostly Cloudy
11:55 AM44.6 °F26.6 °F49 %30.31 in10.0 miSSW (200°)11.5 mphScattered Clouds
12:15 PM42.8 °F24.8 °F49 %30.30 in10.0 miSSW (210°)9.2 mphMostly Cloudy
12:35 PM44.6 °F24.8 °F46 %30.29 in10.0 miSSW (210°)8.1 mphScattered Clouds
12:55 PM44.6 °F26.6 °F49 %30.30 in10.0 miSW (220°)10.4 mphMostly Cloudy
1:15 PM44.6 °F24.8 °F46 %30.30 in10.0 miWSW (240°)9.2 mphMostly Cloudy
1:35 PM44.6 °F24.8 °F46 %30.31 in10.0 miWSW (240°)3.5 mphPartly Cloudy
1:55 PM44.6 °F24.8 °F46 %30.30 in10.0 miSouth (180°)5.8 mphClear
2:15 PM44.6 °F24.8 °F46 %30.30 in10.0 miWSW (240°)9.2 mphClear
2:35 PM46.4 °F24.8 °F43 %30.30 in10.0 miSouth (180°)5.8 mphPartly Cloudy
2:55 PM46.4 °F24.8 °F43 %30.29 in10.0 miSW (220°)9.2 mphMostly Cloudy
3:15 PM46.4 °F23.0 °F40 %30.29 in10.0 miSSW (210°)11.5 mph16.1 mphScattered Clouds
3:35 PM46.4 °F23.0 °F40 %30.29 in10.0 miWSW (240°)15.0 mph18.4 mphClear
3:55 PM44.6 °F24.8 °F46 %30.29 in10.0 miWSW (240°)12.7 mph17.3 mphClear
4:15 PM44.6 °F23.0 °F43 %30.29 in10.0 miSW (230°)13.8 mph17.3 mphClear
4:35 PM44.6 °F23.0 °F43 %30.28 in10.0 miSW (230°)10.4 mphClear
4:55 PM44.6 °F21.2 °F39 %30.29 in10.0 miSW (230°)9.2 mphClear
5:15 PM44.6 °F24.8 °F46 %30.28 in10.0 miWSW (240°)10.4 mphClear
5:35 PM44.6 °F21.2 °F39 %30.28 in10.0 miSW (230°)10.4 mphClear
5:55 PM44.6 °F23.0 °F43 %30.28 in10.0 miSW (230°)6.9 mphClear
6:15 PM42.8 °F23.0 °F46 %30.29 in10.0 miWSW (240°)8.1 mphClear
6:35 PM42.8 °F21.2 °F42 %30.29 in10.0 miSW (230°)9.2 mphClear
6:55 PM42.8 °F24.8 °F49 %30.30 in10.0 miWSW (250°)8.1 mphClear
7:15 PM41.0 °F24.8 °F53 %30.30 in10.0 miWest (270°)4.6 mphClear
7:55 PM39.2 °F24.8 °F56 %30.32 in10.0 miWest (280°)6.9 mphClear
8:15 PM39.2 °F21.2 °F49 %30.32 in10.0 miEast (100°)4.6 mphClear
8:35 PM37.4 °F21.2 °F52 %30.32 in10.0 miNNW (330°)5.8 mphClear
8:55 PM35.6 °F21.2 °F56 %30.32 in10.0 miEast (80°)3.5 mphClear
9:15 PM35.6 °F21.2 °F56 %30.33 in10.0 miCalmClear
9:35 PM33.8 °F19.4 °F56 %30.33 in10.0 miNorth (350°)4.6 mphClear
9:55 PM33.8 °F21.2 °F60 %30.34 in10.0 miNNW (340°)3.5 mphClear
10:15 PM32.0 °F19.4 °F60 %30.36 in10.0 miCalmClear
10:35 PM30.2 °F19.4 °F64 %30.36 in10.0 miCalmClear
10:55 PM28.4 °F19.4 °F69 %30.37 in10.0 miCalmClear
11:15 PM28.4 °F19.4 °F69 %30.37 in10.0 miCalmClear
11:55 PM28.4 °F19.4 °F69 %30.38 in10.0 miCalmClear
Hourly data recorded from KGUC, located miles away from Crested Butte, Colorado







STORIES FROM OUR PARTNERS